Time,TemperatureF,DewpointF,PressureIn,WindDirection,WindDirectionDegrees,WindSpeedMPH,WindSpeedGustMPH,Humidity,HourlyPrecipIn,Conditions,Clouds,dailyrainin,SoftwareType,DateUTC
2013-05-11 00:00:00,70.5,69.9,29.85,SE,135,0.0,0.0,98,0.00,CLR,,0.00,WeatherDisplay:10.37,2013-05-11 05:00:00,
2013-05-11 00:06:00,70.5,69.9,29.87,SW,225,0.0,0.0,98,0.00,CLR,,0.00,WeatherDisplay:10.37,2013-05-11 05:06:00,
2013-05-11 00:11:00,70.5,69.9,29.86,South,180,0.0,0.0,98,0.00,CLR,,0.00,WeatherDisplay:10.37,2013-05-11 05:11:00,
2013-05-11 00:16:00,70.2,69.6,29.86,South,180,0.0,0.0,98,0.00,CLR,,0.00,WeatherDisplay:10.37,2013-05-11 05:16:00,
2013-05-11 00:21:00,70.2,69.6,29.85,South,180,0.0,0.0,98,0.00,CLR,,0.00,WeatherDisplay:10.37,2013-05-11 05:21:00,
2013-05-11 00:26:00,70.0,69.4,29.85,South,180,0.0,0.0,98,0.00,CLR,,0.00,WeatherDisplay:10.37,2013-05-11 05:26:00,
2013-05-11 00:31:00,69.8,69.2,29.85,South,180,0.0,0.0,98,0.00,CLR,,0.00,WeatherDisplay:10.37,2013-05-11 05:31:00,
2013-05-11 00:37:00,69.6,69.3,29.85,South,180,0.0,0.0,99,0.00,CLR,,0.00,WeatherDisplay:10.37,2013-05-11 05:37:00,
2013-05-11 00:42:00,69.4,69.1,29.84,South,180,0.0,0.0,99,0.00,CLR,,0.00,WeatherDisplay:10.37,2013-05-11 05:42:00,
2013-05-11 00:47:00,69.3,69.0,29.83,South,180,0.0,0.0,99,0.00,CLR,,0.00,WeatherDisplay:10.37,2013-05-11 05:47:00,
2013-05-11 00:52:00,69.1,68.8,29.83,South,180,0.0,0.0,99,0.00,CLR,,0.00,WeatherDisplay:10.37,2013-05-11 05:52:00,
2013-05-11 00:57:00,69.1,68.8,29.82,South,180,0.0,0.0,99,0.00,CLR,,0.00,WeatherDisplay:10.37,2013-05-11 05:57:00,
2013-05-11 01:03:00,68.9,68.6,29.81,South,180,0.0,0.0,99,0.00,CLR,,0.00,WeatherDisplay:10.37,2013-05-11 06:03:00,
2013-05-11 01:08:00,68.7,68.5,29.81,South,180,0.0,0.0,99,0.00,CLR,,0.00,WeatherDisplay:10.37,2013-05-11 06:08:00,
2013-05-11 01:13:00,68.5,68.2,29.81,South,180,0.0,0.0,99,0.00,CLR,,0.00,WeatherDisplay:10.37,2013-05-11 06:13:00,
2013-05-11 01:18:00,68.4,68.1,29.81,South,180,0.0,0.0,99,0.00,CLR,,0.00,WeatherDisplay:10.37,2013-05-11 06:18:00,
2013-05-11 01:24:00,68.2,67.9,29.81,South,180,0.0,0.0,99,0.00,CLR,,0.00,WeatherDisplay:10.37,2013-05-11 06:24:00,
2013-05-11 01:29:00,68.2,67.9,29.82,West,270,0.0,0.0,99,0.00,CLR,,0.00,WeatherDisplay:10.37,2013-05-11 06:29:00,
2013-05-11 01:34:00,68.0,67.7,29.83,West,270,0.0,0.0,99,0.00,CLR,,0.00,WeatherDisplay:10.37,2013-05-11 06:34:00,
2013-05-11 01:39:00,67.6,67.3,29.82,WSW,248,0.0,0.0,99,0.00,CLR,,0.00,WeatherDisplay:10.37,2013-05-11 06:39:00,
2013-05-11 01:45:00,67.5,67.2,29.82,SW,225,0.0,0.0,99,0.00,CLR,,0.00,WeatherDisplay:10.37,2013-05-11 06:45:00,
2013-05-11 01:50:00,67.3,67.0,29.83,NW,315,0.0,0.0,99,0.00,CLR,,0.00,WeatherDisplay:10.37,2013-05-11 06:50:00,
2013-05-11 01:55:00,66.9,66.6,29.83,SW,225,0.0,0.0,99,0.00,CLR,,0.00,WeatherDisplay:10.37,2013-05-11 06:55:00,
2013-05-11 02:00:00,66.7,66.5,29.84,West,270,0.0,0.0,99,0.00,CLR,,0.00,WeatherDisplay:10.37,2013-05-11 07:00:00,
2013-05-11 02:05:00,66.7,66.5,29.83,SW,225,0.0,0.0,99,0.00,CLR,,0.00,WeatherDisplay:10.37,2013-05-11 07:05:00,
2013-05-11 02:10:00,66.4,66.1,29.83,WSW,248,0.0,0.0,99,0.00,CLR,,0.00,WeatherDisplay:10.37,2013-05-11 07:10:00,
2013-05-11 02:16:00,66.4,66.1,29.82,SW,225,0.0,0.0,99,0.00,CLR,,0.00,WeatherDisplay:10.37,2013-05-11 07:16:00,
2013-05-11 02:21:00,66.2,65.9,29.81,SW,225,0.0,0.0,99,0.00,CLR,,0.00,WeatherDisplay:10.37,2013-05-11 07:21:00,
2013-05-11 02:26:00,66.2,65.9,29.81,SW,225,0.0,0.0,99,0.00,CLR,,0.00,WeatherDisplay:10.37,2013-05-11 07:26:00,
2013-05-11 02:31:00,66.0,65.7,29.83,SW,225,0.0,0.0,99,0.00,CLR,,0.00,WeatherDisplay:10.37,2013-05-11 07:31:00,
2013-05-11 02:37:00,65.8,65.6,29.84,NW,315,0.0,0.0,99,0.00,CLR,,0.00,WeatherDisplay:10.37,2013-05-11 07:37:00,
2013-05-11 02:42:00,65.7,65.4,29.83,NW,315,0.0,0.0,99,0.00,CLR,,0.00,WeatherDisplay:10.37,2013-05-11 07:42:00,
2013-05-11 02:47:00,65.7,65.4,29.83,NW,315,0.0,0.0,99,0.00,CLR,,0.00,WeatherDisplay:10.37,2013-05-11 07:47:00,
2013-05-11 02:52:00,65.5,65.2,29.84,NW,315,0.0,0.0,99,0.00,CLR,,0.00,WeatherDisplay:10.37,2013-05-11 07:52:00,
2013-05-11 02:58:00,65.5,65.2,29.85,West,270,0.0,0.0,99,0.00,CLR,,0.00,WeatherDisplay:10.37,2013-05-11 07:58:00,
2013-05-11 03:03:00,65.5,65.2,29.84,NW,305,0.0,0.0,99,0.00,CLR,,0.00,WeatherDisplay:10.37,2013-05-11 08:03:00,
2013-05-11 03:08:00,65.3,65.0,29.85,NW,315,0.0,0.0,99,0.00,CLR,,0.00,WeatherDisplay:10.37,2013-05-11 08:08:00,
2013-05-11 03:13:00,65.3,65.0,29.86,NW,315,0.0,0.0,99,0.00,CLR,,0.00,WeatherDisplay:10.37,2013-05-11 08:13:00,
2013-05-11 03:18:00,65.3,65.0,29.86,NNW,328,0.0,0.0,99,0.00,CLR,,0.00,WeatherDisplay:10.37,2013-05-11 08:18:00,
2013-05-11 03:23:00,65.3,65.0,29.85,NNE,22,0.0,0.0,99,0.00,CLR,,0.00,WeatherDisplay:10.37,2013-05-11 08:23:00,
2013-05-11 03:28:00,65.3,65.0,29.85,NNE,16,0.0,0.0,99,0.00,CLR,,0.00,WeatherDisplay:10.37,2013-05-11 08:28:00,
2013-05-11 03:33:00,65.3,65.0,29.85,NNE,20,0.0,0.0,99,0.00,CLR,,0.00,WeatherDisplay:10.37,2013-05-11 08:33:00,
2013-05-11 03:38:00,65.3,65.0,29.85,NE,45,0.0,0.0,99,0.00,CLR,,0.00,WeatherDisplay:10.37,2013-05-11 08:38:00,
2013-05-11 03:43:00,65.3,65.0,29.86,NE,56,0.0,0.0,99,0.00,CLR,,0.00,WeatherDisplay:10.37,2013-05-11 08:43:00,
2013-05-11 03:48:00,65.3,65.0,29.86,East,79,0.0,0.0,99,0.00,CLR,,0.00,WeatherDisplay:10.37,2013-05-11 08:48:00,
2013-05-11 03:53:00,65.3,65.0,29.85,East,90,0.0,0.0,99,0.00,CLR,,0.00,WeatherDisplay:10.37,2013-05-11 08:53:00,
2013-05-11 03:58:00,65.3,65.0,29.86,East,90,0.0,0.0,99,0.00,CLR,,0.00,WeatherDisplay:10.37,2013-05-11 08:58:00,
2013-05-11 04:03:00,65.3,65.0,29.85,East,90,0.0,0.0,99,0.00,CLR,,0.00,WeatherDisplay:10.37,2013-05-11 09:03:00,
2013-05-11 04:08:00,65.3,65.0,29.85,ENE,75,0.0,0.0,99,0.00,CLR,,0.00,WeatherDisplay:10.37,2013-05-11 09:08:00,
2013-05-11 04:13:00,65.1,64.8,29.85,NE,45,0.0,0.0,99,0.00,CLR,,0.00,WeatherDisplay:10.37,2013-05-11 09:13:00,
2013-05-11 04:18:00,65.1,64.8,29.86,NE,45,0.0,0.0,99,0.00,CLR,,0.00,WeatherDisplay:10.37,2013-05-11 09:18:00,
2013-05-11 04:23:00,64.9,64.7,29.85,East,90,0.0,0.0,99,0.00,CLR,,0.00,WeatherDisplay:10.37,2013-05-11 09:23:00,
2013-05-11 04:28:00,64.9,64.7,29.86,NW,315,0.0,0.0,99,0.00,CLR,,0.00,WeatherDisplay:10.37,2013-05-11 09:28:00,
2013-05-11 04:33:00,64.8,64.5,29.86,NW,315,0.0,0.0,99,0.00,CLR,,0.00,WeatherDisplay:10.37,2013-05-11 09:33:00,
2013-05-11 04:39:00,64.8,64.5,29.87,NW,315,0.0,0.0,99,0.00,CLR,,0.00,WeatherDisplay:10.37,2013-05-11 09:39:00,
2013-05-11 04:44:00,64.8,64.5,29.87,NW,315,0.0,0.0,99,0.00,CLR,,0.00,WeatherDisplay:10.37,2013-05-11 09:44:00,
2013-05-11 04:49:00,64.6,64.3,29.87,NW,315,0.0,0.0,99,0.00,CLR,,0.00,WeatherDisplay:10.37,2013-05-11 09:49:00,
2013-05-11 04:54:00,64.6,64.3,29.87,NW,315,0.0,0.0,99,0.00,CLR,,0.00,WeatherDisplay:10.37,2013-05-11 09:54:00,
2013-05-11 05:00:00,64.6,64.3,29.87,NW,315,0.0,0.0,99,0.00,CLR,,0.00,WeatherDisplay:10.37,2013-05-11 10:00:00,
2013-05-11 05:05:00,64.6,64.3,29.87,NW,315,0.0,0.0,99,0.00,CLR,,0.00,WeatherDisplay:10.37,2013-05-11 10:05:00,
2013-05-11 05:10:00,64.6,64.3,29.87,NW,315,0.0,0.0,99,0.00,CLR,,0.00,WeatherDisplay:10.37,2013-05-11 10:10:00,
2013-05-11 05:16:00,64.6,64.3,29.87,NW,315,0.0,0.0,99,0.00,CLR,,0.00,WeatherDisplay:10.37,2013-05-11 10:16:00,
2013-05-11 05:21:00,64.8,64.5,29.88,NW,315,0.0,0.0,99,0.00,CLR,,0.00,WeatherDisplay:10.37,2013-05-11 10:21:00,
2013-05-11 05:26:00,64.8,64.5,29.88,NW,315,0.0,0.0,99,0.00,CLR,,0.00,WeatherDisplay:10.37,2013-05-11 10:26:00,
2013-05-11 05:31:00,64.6,64.3,29.88,NW,315,0.0,0.0,99,0.00,CLR,,0.00,WeatherDisplay:10.37,2013-05-11 10:31:00,
2013-05-11 05:36:00,64.6,64.3,29.88,NW,315,0.0,0.0,99,0.00,CLR,,0.00,WeatherDisplay:10.37,2013-05-11 10:36:00,
2013-05-11 05:41:00,64.8,64.5,29.88,NW,315,0.0,0.0,99,0.00,CLR,,0.00,WeatherDisplay:10.37,2013-05-11 10:41:00,
2013-05-11 05:46:00,64.8,64.5,29.88,NW,315,0.0,0.0,99,0.00,CLR,,0.00,WeatherDisplay:10.37,2013-05-11 10:46:00,
2013-05-11 05:52:00,64.8,64.5,29.88,NW,315,0.0,0.0,99,0.00,CLR,,0.00,WeatherDisplay:10.37,2013-05-11 10:52:00,
2013-05-11 05:57:00,64.8,64.5,29.88,NW,315,0.0,0.0,99,0.00,CLR,,0.00,WeatherDisplay:10.37,2013-05-11 10:57:00,
2013-05-11 06:02:00,64.9,64.7,29.88,NW,315,0.0,0.0,99,0.00,CLR,,0.00,WeatherDisplay:10.37,2013-05-11 11:02:00,
2013-05-11 06:07:00,64.9,64.7,29.88,NW,315,0.0,0.0,99,0.00,CLR,,0.00,WeatherDisplay:10.37,2013-05-11 11:07:00,
2013-05-11 06:12:00,64.9,64.7,29.88,NW,315,0.0,0.0,99,0.00,CLR,,0.00,WeatherDisplay:10.37,2013-05-11 11:12:00,
2013-05-11 06:18:00,64.9,64.7,29.88,NW,315,0.0,0.0,99,0.00,CLR,,0.00,WeatherDisplay:10.37,2013-05-11 11:18:00,
2013-05-11 06:23:00,64.9,64.7,29.88,NW,315,0.0,0.0,99,0.00,CLR,,0.00,WeatherDisplay:10.37,2013-05-11 11:23:00,
2013-05-11 06:28:00,64.9,64.7,29.88,NW,315,0.0,0.0,99,0.00,CLR,,0.00,WeatherDisplay:10.37,2013-05-11 11:28:00,
2013-05-11 06:33:00,64.9,64.7,29.88,NW,315,0.0,0.0,99,0.00,CLR,,0.00,WeatherDisplay:10.37,2013-05-11 11:33:00,
2013-05-11 06:38:00,64.9,64.7,29.88,NW,315,0.0,0.0,99,0.00,CLR,,0.00,WeatherDisplay:10.37,2013-05-11 11:38:00,
2013-05-11 06:43:00,64.8,64.5,29.88,NW,315,0.0,0.0,99,0.00,CLR,,0.00,WeatherDisplay:10.37,2013-05-11 11:43:00,
2013-05-11 06:48:00,64.8,64.5,29.88,NW,315,0.0,0.0,99,0.00,CLR,,0.00,WeatherDisplay:10.37,2013-05-11 11:48:00,
2013-05-11 06:53:00,64.8,64.5,29.88,NW,315,0.7,0.0,99,0.00,CLR,,0.00,WeatherDisplay:10.37,2013-05-11 11:53:00,
2013-05-11 06:58:00,64.8,64.5,29.89,NW,311,0.0,1.0,99,0.00,CLR,,0.00,WeatherDisplay:10.37,2013-05-11 11:58:00,
2013-05-11 07:03:00,64.8,64.5,29.89,WNW,286,0.0,0.0,99,0.00,CLR,,0.00,WeatherDisplay:10.37,2013-05-11 12:03:00,
2013-05-11 07:08:00,64.8,64.5,29.89,West,270,0.0,0.0,99,0.00,CLR,,0.00,WeatherDisplay:10.37,2013-05-11 12:08:00,
2013-05-11 07:13:00,64.8,64.5,29.89,WNW,288,0.0,0.0,99,0.00,CLR,,0.00,WeatherDisplay:10.37,2013-05-11 12:13:00,
2013-05-11 07:18:00,64.6,64.3,29.89,WNW,299,0.0,0.0,99,0.00,CLR,,0.00,WeatherDisplay:10.37,2013-05-11 12:18:00,
2013-05-11 07:23:00,64.6,64.3,29.89,WNW,292,0.0,0.0,99,0.00,CLR,,0.00,WeatherDisplay:10.37,2013-05-11 12:23:00,
2013-05-11 07:28:00,64.6,64.3,29.89,West,281,0.0,0.0,99,0.00,CLR,,0.00,WeatherDisplay:10.37,2013-05-11 12:28:00,
2013-05-11 07:33:00,64.8,64.5,29.90,West,270,0.0,0.0,99,0.00,CLR,,0.00,WeatherDisplay:10.37,2013-05-11 12:33:00,
2013-05-11 07:38:00,64.8,64.5,29.90,West,277,0.0,0.0,99,0.00,CLR,,0.00,WeatherDisplay:10.37,2013-05-11 12:38:00,
2013-05-11 07:43:00,64.8,64.5,29.90,WNW,294,0.0,0.0,99,0.00,CLR,,0.00,WeatherDisplay:10.37,2013-05-11 12:43:00,
2013-05-11 07:48:00,64.8,64.5,29.91,NW,315,0.0,0.0,99,0.00,CLR,,0.00,WeatherDisplay:10.37,2013-05-11 12:48:00,
2013-05-11 07:53:00,64.8,64.5,29.91,NW,315,0.0,0.0,99,0.00,CLR,,0.00,WeatherDisplay:10.37,2013-05-11 12:53:00,
2013-05-11 07:58:00,64.8,64.5,29.90,NW,315,0.0,0.0,99,0.00,CLR,,0.00,WeatherDisplay:10.37,2013-05-11 12:58:00,
2013-05-11 08:03:00,64.8,64.5,29.91,NW,310,0.0,0.0,99,0.00,CLR,,0.00,WeatherDisplay:10.37,2013-05-11 13:03:00,
2013-05-11 08:08:00,64.8,64.5,29.91,SW,225,0.0,0.0,99,0.00,CLR,,0.00,WeatherDisplay:10.37,2013-05-11 13:08:00,
2013-05-11 08:13:00,64.7,64.5,29.91,WNW,286,0.0,0.0,99,0.00,CLR,,0.00,WeatherDisplay:10.37,2013-05-11 13:13:00,
2013-05-11 08:18:00,64.9,64.6,29.91,WNW,298,0.0,0.0,99,0.00,CLR,,0.00,WeatherDisplay:10.37,2013-05-11 13:18:00,
2013-05-11 08:23:00,64.9,64.7,29.91,NW,307,0.0,2.0,99,0.00,CLR,,0.00,WeatherDisplay:10.37,2013-05-11 13:23:00,
2013-05-11 08:28:00,65.1,64.8,29.91,WNW,288,0.0,1.0,99,0.00,CLR,,0.00,WeatherDisplay:10.37,2013-05-11 13:28:00,
2013-05-11 08:33:00,65.4,65.2,29.91,West,278,0.0,2.0,99,0.00,CLR,,0.00,WeatherDisplay:10.37,2013-05-11 13:33:00,
2013-05-11 08:38:00,65.7,65.4,29.91,West,270,0.0,0.0,99,0.00,CLR,,0.00,WeatherDisplay:10.37,2013-05-11 13:38:00,
2013-05-11 08:43:00,66.4,66.1,29.91,NW,315,0.0,0.0,99,0.00,CLR,,0.00,WeatherDisplay:10.37,2013-05-11 13:43:00,
2013-05-11 08:48:00,66.4,66.1,29.92,NW,315,3.5,0.0,99,0.00,CLR,,0.00,WeatherDisplay:10.37,2013-05-11 13:48:00,
2013-05-11 08:53:00,67.3,67.0,29.92,North,0,3.5,3.5,99,0.00,CLR,,0.00,WeatherDisplay:10.37,2013-05-11 13:53:00,
2013-05-11 08:58:00,67.6,67.3,29.91,NW,315,5.8,5.8,99,0.00,CLR,,0.00,WeatherDisplay:10.37,2013-05-11 13:58:00,
2013-05-11 09:03:00,68.4,67.8,29.92,NW,315,1.1,0.0,98,0.00,CLR,,0.00,WeatherDisplay:10.37,2013-05-11 14:03:00,
2013-05-11 09:09:00,69.4,67.9,29.92,NW,315,4.6,4.6,95,0.00,CLR,,0.00,WeatherDisplay:10.37,2013-05-11 14:09:00,
2013-05-11 09:14:00,70.0,67.5,29.92,NW,315,1.1,1.1,92,0.00,CLR,,0.00,WeatherDisplay:10.37,2013-05-11 14:14:00,
2013-05-11 09:19:00,70.0,66.9,29.92,NE,45,2.3,2.3,90,0.00,CLR,,0.00,WeatherDisplay:10.37,2013-05-11 14:19:00,
2013-05-11 09:24:00,70.2,66.1,29.91,NW,315,1.1,0.0,87,0.00,CLR,,0.00,WeatherDisplay:10.37,2013-05-11 14:24:00,
2013-05-11 09:29:00,70.2,65.4,29.91,NNE,22,5.8,0.0,85,0.00,CLR,,0.00,WeatherDisplay:10.37,2013-05-11 14:29:00,
2013-05-11 09:35:00,70.9,66.1,29.91,NE,45,1.1,0.0,85,0.00,CLR,,0.00,WeatherDisplay:10.37,2013-05-11 14:35:00,
2013-05-11 09:40:00,71.1,66.0,29.91,NE,45,3.5,3.5,84,0.00,CLR,,0.00,WeatherDisplay:10.37,2013-05-11 14:40:00,
2013-05-11 09:45:00,71.6,65.8,29.91,SW,225,2.3,2.3,82,0.00,CLR,,0.00,WeatherDisplay:10.37,2013-05-11 14:45:00,
2013-05-11 09:50:00,72.0,65.8,29.92,NE,45,1.1,1.1,81,0.00,CLR,,0.00,WeatherDisplay:10.37,2013-05-11 14:50:00,
2013-05-11 09:56:00,72.3,65.4,29.91,SW,225,3.5,3.5,79,0.00,CLR,,0.00,WeatherDisplay:10.37,2013-05-11 14:56:00,
2013-05-11 10:01:00,73.0,66.5,29.92,SW,225,3.5,0.0,80,0.00,CLR,,0.00,WeatherDisplay:10.37,2013-05-11 15:01:00,
2013-05-11 10:06:00,73.4,66.1,29.92,South,180,3.5,3.5,78,0.00,CLR,,0.00,WeatherDisplay:10.37,2013-05-11 15:06:00,
2013-05-11 10:11:00,73.8,66.1,29.92,North,0,0.0,0.0,77,0.00,CLR,,0.00,WeatherDisplay:10.37,2013-05-11 15:11:00,
2013-05-11 10:16:00,74.1,65.7,29.93,North,0,2.3,2.3,75,0.00,CLR,,0.00,WeatherDisplay:10.37,2013-05-11 15:16:00,
2013-05-11 10:22:00,74.3,65.5,29.93,NW,315,4.6,0.0,74,0.00,CLR,,0.00,WeatherDisplay:10.37,2013-05-11 15:22:00,
2013-05-11 10:27:00,74.7,65.8,29.93,NW,315,3.5,0.0,74,0.00,CLR,,0.00,WeatherDisplay:10.37,2013-05-11 15:27:00,
2013-05-11 10:32:00,75.2,66.3,29.93,NE,45,3.5,3.5,74,0.00,CLR,,0.00,WeatherDisplay:10.37,2013-05-11 15:32:00,
2013-05-11 10:37:00,75.6,65.9,29.93,NW,315,1.1,1.6,72,0.00,CLR,,0.00,WeatherDisplay:10.37,2013-05-11 15:37:00,
2013-05-11 10:42:00,76.1,66.4,29.93,East,90,2.3,2.3,72,0.00,CLR,,0.00,WeatherDisplay:10.37,2013-05-11 15:42:00,
2013-05-11 10:47:00,76.5,66.4,29.93,NE,45,3.5,3.5,71,0.00,CLR,,0.00,WeatherDisplay:10.37,2013-05-11 15:47:00,
2013-05-11 10:53:00,76.5,64.7,29.94,NW,317,1.0,6.0,67,0.00,CLR,,0.00,WeatherDisplay:10.37,2013-05-11 15:53:00,
2013-05-11 10:58:00,76.5,64.3,29.93,NW,315,3.5,3.5,66,0.00,CLR,,0.00,WeatherDisplay:10.37,2013-05-11 15:58:00,
2013-05-11 11:03:00,76.5,64.3,29.94,NE,45,4.6,4.6,66,0.00,CLR,,0.00,WeatherDisplay:10.37,2013-05-11 16:03:00,
2013-05-11 11:08:00,76.6,65.3,29.94,NNE,18,1.0,3.0,68,0.00,CLR,,0.00,WeatherDisplay:10.37,2013-05-11 16:08:00,
2013-05-11 11:13:00,76.7,64.4,29.94,NNE,13,1.0,6.0,66,0.00,CLR,,0.00,WeatherDisplay:10.37,2013-05-11 16:13:00,
2013-05-11 11:18:00,76.8,65.0,29.94,SSE,167,3.0,6.0,67,0.00,CLR,,0.00,WeatherDisplay:10.37,2013-05-11 16:18:00,
2013-05-11 11:23:00,76.8,65.0,29.94,SSE,160,3.0,6.0,67,0.00,CLR,,0.00,WeatherDisplay:10.37,2013-05-11 16:23:00,
2013-05-11 11:28:00,77.2,64.5,29.94,SW,215,2.0,7.0,65,0.00,CLR,,0.00,WeatherDisplay:10.37,2013-05-11 16:28:00,
2013-05-11 11:33:00,77.4,63.8,29.94,NW,306,1.0,7.0,63,0.00,CLR,,0.00,WeatherDisplay:10.37,2013-05-11 16:33:00,
2013-05-11 11:38:00,77.6,64.0,29.94,NNW,348,1.0,5.0,63,0.00,CLR,,0.00,WeatherDisplay:10.37,2013-05-11 16:38:00,
2013-05-11 11:43:00,78.1,64.5,29.94,NNE,22,2.0,4.0,63,0.00,CLR,,0.00,WeatherDisplay:10.37,2013-05-11 16:43:00,
2013-05-11 11:48:00,78.8,64.2,29.94,NNW,330,2.0,5.0,61,0.00,CLR,,0.00,WeatherDisplay:10.37,2013-05-11 16:48:00,
2013-05-11 11:53:00,79.2,63.6,29.94,WNW,292,1.0,6.0,59,0.00,CLR,,0.00,WeatherDisplay:10.37,2013-05-11 16:53:00,
2013-05-11 11:58:00,79.5,64.9,29.93,West,270,3.5,3.5,61,0.00,CLR,,0.00,WeatherDisplay:10.37,2013-05-11 16:58:00,
2013-05-11 12:03:00,79.5,63.4,29.93,SW,225,4.6,4.6,58,0.00,CLR,,0.00,WeatherDisplay:10.37,2013-05-11 17:03:00,
2013-05-11 12:09:00,79.5,63.4,29.94,NNE,22,3.5,3.5,58,0.00,CLR,,0.00,WeatherDisplay:10.37,2013-05-11 17:09:00,
2013-05-11 12:14:00,79.5,63.4,29.93,West,270,2.3,2.3,58,0.00,CLR,,0.00,WeatherDisplay:10.37,2013-05-11 17:14:00,
2013-05-11 12:19:00,80.1,63.5,29.93,North,0,3.5,3.5,57,0.00,CLR,,0.00,WeatherDisplay:10.37,2013-05-11 17:19:00,
2013-05-11 12:24:00,80.4,62.8,29.93,NW,315,6.0,6.0,55,0.00,CLR,,0.00,WeatherDisplay:10.37,2013-05-11 17:24:00,
2013-05-11 12:29:00,80.4,62.8,29.93,SW,225,3.5,3.5,55,0.00,CLR,,0.00,WeatherDisplay:10.37,2013-05-11 17:29:00,
2013-05-11 12:35:00,81.0,62.7,29.93,NE,45,2.3,0.0,54,0.00,CLR,,0.00,WeatherDisplay:10.37,2013-05-11 17:35:00,
2013-05-11 12:40:00,81.3,62.6,29.93,East,90,3.5,3.5,53,0.00,CLR,,0.00,WeatherDisplay:10.37,2013-05-11 17:40:00,
2013-05-11 12:45:00,81.1,61.3,29.93,West,270,4.6,4.6,51,0.00,CLR,,0.00,WeatherDisplay:10.37,2013-05-11 17:45:00,
2013-05-11 12:50:00,81.1,61.3,29.93,NW,315,5.8,5.8,51,0.00,CLR,,0.00,WeatherDisplay:10.37,2013-05-11 17:50:00,
2013-05-11 12:55:00,81.1,61.8,29.93,West,270,3.5,3.5,52,0.00,CLR,,0.00,WeatherDisplay:10.37,2013-05-11 17:55:00,
2013-05-11 13:01:00,81.0,62.2,29.93,North,0,4.6,4.6,53,0.00,CLR,,0.00,WeatherDisplay:10.37,2013-05-11 18:01:00,
2013-05-11 13:06:00,81.0,62.2,29.93,North,0,4.6,4.6,53,0.00,CLR,,0.00,WeatherDisplay:10.37,2013-05-11 18:06:00,
2013-05-11 13:11:00,81.5,61.6,29.93,West,270,3.5,3.5,51,0.00,CLR,,0.00,WeatherDisplay:10.37,2013-05-11 18:11:00,
2013-05-11 13:16:00,82.0,59.8,29.92,SW,225,3.5,3.5,47,0.00,CLR,,0.00,WeatherDisplay:10.37,2013-05-11 18:16:00,
2013-05-11 13:21:00,82.4,59.5,29.93,North,0,5.8,5.8,46,0.00,CLR,,0.00,WeatherDisplay:10.37,2013-05-11 18:21:00,
2013-05-11 13:26:00,82.4,59.5,29.93,NE,45,4.6,4.6,46,0.00,CLR,,0.00,WeatherDisplay:10.37,2013-05-11 18:26:00,
2013-05-11 13:32:00,82.9,60.0,29.93,NW,315,3.8,3.8,46,0.00,CLR,,0.00,WeatherDisplay:10.37,2013-05-11 18:32:00,
2013-05-11 13:37:00,82.9,60.0,29.93,NE,45,3.5,3.5,46,0.00,CLR,,0.00,WeatherDisplay:10.37,2013-05-11 18:37:00,
2013-05-11 13:42:00,82.9,59.4,29.92,East,90,5.8,5.8,45,0.00,CLR,,0.00,WeatherDisplay:10.37,2013-05-11 18:42:00,
2013-05-11 13:47:00,83.3,59.7,29.92,NW,315,3.5,3.5,45,0.00,CLR,,0.00,WeatherDisplay:10.37,2013-05-11 18:47:00,
2013-05-11 13:52:00,82.9,58.1,29.92,NW,315,4.6,4.6,43,0.00,CLR,,0.00,WeatherDisplay:10.37,2013-05-11 18:52:00,
2013-05-11 13:57:00,82.2,57.5,29.93,NNW,338,5.8,5.8,43,0.00,CLR,,0.00,WeatherDisplay:10.37,2013-05-11 18:57:00,
2013-05-11 14:03:00,82.1,57.3,29.93,NNW,329,2.0,6.0,43,0.00,CLR,,0.00,WeatherDisplay:10.37,2013-05-11 19:03:00,
2013-05-11 14:08:00,82.6,57.8,29.93,NW,324,1.0,6.0,43,0.00,CLR,,0.00,WeatherDisplay:10.37,2013-05-11 19:08:00,
2013-05-11 14:13:00,83.5,58.6,29.92,NNW,346,1.0,5.0,43,0.00,CLR,,0.00,WeatherDisplay:10.37,2013-05-11 19:13:00,
2013-05-11 14:18:00,84.0,59.1,29.93,NNW,341,2.0,6.0,43,0.00,CLR,,0.00,WeatherDisplay:10.37,2013-05-11 19:18:00,
2013-05-11 14:23:00,84.3,58.0,29.92,NW,325,1.0,4.0,41,0.00,CLR,,0.00,WeatherDisplay:10.37,2013-05-11 19:23:00,
2013-05-11 14:28:00,84.4,58.1,29.92,NW,317,2.0,7.0,41,0.00,CLR,,0.00,WeatherDisplay:10.37,2013-05-11 19:28:00,
2013-05-11 14:33:00,84.4,58.1,29.92,NNW,334,1.0,7.0,41,0.00,CLR,,0.00,WeatherDisplay:10.37,2013-05-11 19:33:00,
2013-05-11 14:38:00,85.8,60.0,29.92,WNW,292,2.0,7.0,42,0.00,CLR,,0.00,WeatherDisplay:10.37,2013-05-11 19:38:00,
2013-05-11 14:43:00,85.8,58.7,29.92,WNW,292,3.0,6.0,40,0.00,CLR,,0.00,WeatherDisplay:10.37,2013-05-11 19:43:00,
2013-05-11 14:48:00,86.2,58.3,29.91,NNW,328,1.0,6.0,39,0.00,CLR,,0.00,WeatherDisplay:10.37,2013-05-11 19:48:00,
2013-05-11 14:53:00,86.4,57.0,29.91,West,270,8.1,8.1,37,0.00,CLR,,0.00,WeatherDisplay:10.37,2013-05-11 19:53:00,
2013-05-11 14:58:00,86.7,56.6,29.91,West,270,5.8,5.8,36,0.00,CLR,,0.00,WeatherDisplay:10.37,2013-05-11 19:58:00,
2013-05-11 15:03:00,86.5,56.4,29.91,NE,45,1.1,1.1,36,0.00,CLR,,0.00,WeatherDisplay:10.37,2013-05-11 20:03:00,
2013-05-11 15:09:00,87.1,57.7,29.91,NW,315,4.6,4.6,37,0.00,CLR,,0.00,WeatherDisplay:10.37,2013-05-11 20:09:00,
2013-05-11 15:14:00,87.4,57.2,29.91,East,90,3.5,3.5,36,0.00,CLR,,0.00,WeatherDisplay:10.37,2013-05-11 20:14:00,
2013-05-11 15:19:00,87.4,56.4,29.91,West,270,3.5,3.5,35,0.00,CLR,,0.00,WeatherDisplay:10.37,2013-05-11 20:19:00,
2013-05-11 15:24:00,88.0,56.1,29.91,West,270,5.8,5.8,34,0.00,CLR,,0.00,WeatherDisplay:10.37,2013-05-11 20:24:00,
2013-05-11 15:29:00,87.3,55.5,29.90,NE,45,2.3,2.3,34,0.00,CLR,,0.00,WeatherDisplay:10.37,2013-05-11 20:29:00,
2013-05-11 15:35:00,87.3,55.5,29.91,NW,315,2.3,2.3,34,0.00,CLR,,0.00,WeatherDisplay:10.37,2013-05-11 20:35:00,
2013-05-11 15:40:00,87.6,55.0,29.90,East,90,5.8,5.8,33,0.00,CLR,,0.00,WeatherDisplay:10.37,2013-05-11 20:40:00,
2013-05-11 15:45:00,87.6,55.8,29.90,North,0,5.8,5.8,34,0.00,CLR,,0.00,WeatherDisplay:10.37,2013-05-11 20:45:00,
2013-05-11 15:50:00,87.3,55.5,29.90,NE,45,4.6,4.6,34,0.00,CLR,,0.00,WeatherDisplay:10.37,2013-05-11 20:50:00,
2013-05-11 15:55:00,86.7,53.3,29.90,West,270,5.8,5.8,32,0.00,CLR,,0.00,WeatherDisplay:10.37,2013-05-11 20:55:00,
2013-05-11 16:01:00,86.7,55.0,29.90,NNW,338,3.5,3.5,34,0.00,CLR,,0.00,WeatherDisplay:10.37,2013-05-11 21:01:00,
2013-05-11 16:06:00,87.8,55.1,29.89,North,0,3.5,3.5,33,0.00,CLR,,0.00,WeatherDisplay:10.37,2013-05-11 21:06:00,
2013-05-11 16:11:00,88.0,54.4,29.89,NE,45,4.6,4.6,32,0.00,CLR,,0.00,WeatherDisplay:10.37,2013-05-11 21:11:00,
2013-05-11 16:16:00,87.1,54.5,29.89,NE,45,3.5,3.5,33,0.00,CLR,,0.00,WeatherDisplay:10.37,2013-05-11 21:16:00,
2013-05-11 16:22:00,85.3,54.5,29.89,NW,315,5.8,5.8,35,0.00,CLR,,0.00,WeatherDisplay:10.37,2013-05-11 21:22:00,
2013-05-11 16:27:00,85.3,56.8,29.90,NW,315,4.6,4.6,38,0.00,CLR,,0.00,WeatherDisplay:10.37,2013-05-11 21:27:00,
2013-05-11 16:32:00,84.9,54.2,29.89,NW,315,5.8,5.8,35,0.00,CLR,,0.00,WeatherDisplay:10.37,2013-05-11 21:32:00,
2013-05-11 16:37:00,85.8,55.8,29.90,NE,45,2.3,2.3,36,0.00,CLR,,0.00,WeatherDisplay:10.37,2013-05-11 21:37:00,
2013-05-11 16:42:00,86.7,55.0,29.90,North,0,3.5,3.5,34,0.00,CLR,,0.00,WeatherDisplay:10.37,2013-05-11 21:42:00,
2013-05-11 16:48:00,86.4,53.9,29.90,NNW,338,3.5,3.5,33,0.00,CLR,,0.00,WeatherDisplay:10.37,2013-05-11 21:48:00,
2013-05-11 16:53:00,86.0,53.5,29.90,NE,34,1.0,3.0,33,0.00,CLR,,0.00,WeatherDisplay:10.37,2013-05-11 21:53:00,
2013-05-11 16:58:00,86.5,53.9,29.90,NW,304,3.0,6.0,33,0.00,CLR,,0.00,WeatherDisplay:10.37,2013-05-11 21:58:00,
2013-05-11 17:03:00,86.4,53.9,29.90,West,278,3.0,6.0,33,0.00,CLR,,0.00,WeatherDisplay:10.37,2013-05-11 22:03:00,
2013-05-11 17:08:00,86.0,53.6,29.90,West,273,2.0,5.0,33,0.00,CLR,,0.00,WeatherDisplay:10.37,2013-05-11 22:08:00,
2013-05-11 17:13:00,85.3,54.5,29.90,WNW,292,0.0,4.0,35,0.00,CLR,,0.00,WeatherDisplay:10.37,2013-05-11 22:13:00,
2013-05-11 17:18:00,85.9,55.8,29.90,NW,314,1.0,5.0,36,0.00,CLR,,0.00,WeatherDisplay:10.37,2013-05-11 22:18:00,
2013-05-11 17:23:00,86.4,53.9,29.90,WNW,290,2.0,6.0,33,0.00,CLR,,0.00,WeatherDisplay:10.37,2013-05-11 22:23:00,
2013-05-11 17:28:00,87.0,53.5,29.90,NW,318,2.0,6.0,32,0.00,CLR,,0.00,WeatherDisplay:10.37,2013-05-11 22:28:00,
2013-05-11 17:33:00,86.7,54.2,29.90,WNW,302,1.0,7.0,33,0.00,CLR,,0.00,WeatherDisplay:10.37,2013-05-11 22:33:00,
2013-05-11 17:38:00,87.4,55.6,29.90,WNW,292,2.0,4.0,34,0.00,CLR,,0.00,WeatherDisplay:10.37,2013-05-11 22:38:00,
2013-05-11 17:43:00,87.8,54.3,29.90,WNW,293,2.0,3.0,32,0.00,CLR,,0.00,WeatherDisplay:10.37,2013-05-11 22:43:00,
2013-05-11 17:48:00,87.8,54.3,29.90,NW,312,1.0,5.0,32,0.00,CLR,,0.00,WeatherDisplay:10.37,2013-05-11 22:48:00,
2013-05-11 17:53:00,87.2,54.6,29.90,NNW,343,2.0,6.0,33,0.00,CLR,,0.00,WeatherDisplay:10.37,2013-05-11 22:53:00,
2013-05-11 17:58:00,86.7,55.0,29.90,NW,314,1.0,6.0,34,0.00,CLR,,0.00,WeatherDisplay:10.37,2013-05-11 22:58:00,
2013-05-11 18:03:00,86.5,55.6,29.90,NNW,343,1.0,4.0,35,0.00,CLR,,0.00,WeatherDisplay:10.37,2013-05-11 23:03:00,
2013-05-11 18:08:00,85.5,55.5,29.89,NNE,28,1.0,2.0,36,0.00,CLR,,0.00,WeatherDisplay:10.37,2013-05-11 23:08:00,
2013-05-11 18:13:00,85.8,56.5,29.89,NE,34,1.0,4.0,37,0.00,CLR,,0.00,WeatherDisplay:10.37,2013-05-11 23:13:00,
2013-05-11 18:18:00,85.6,55.6,29.89,NW,321,3.0,6.0,36,0.00,CLR,,0.00,WeatherDisplay:10.37,2013-05-11 23:18:00,
2013-05-11 18:23:00,85.1,55.1,29.89,NW,308,2.0,6.0,36,0.00,CLR,,0.00,WeatherDisplay:10.37,2013-05-11 23:23:00,
2013-05-11 18:28:00,84.3,54.4,29.89,WNW,286,2.0,5.0,36,0.00,CLR,,0.00,WeatherDisplay:10.37,2013-05-11 23:28:00,
2013-05-11 18:33:00,82.8,56.0,29.89,WNW,285,1.0,3.0,40,0.00,CLR,,0.00,WeatherDisplay:10.37,2013-05-11 23:33:00,
2013-05-11 18:38:00,82.1,55.4,29.89,NW,321,1.0,5.0,40,0.00,CLR,,0.00,WeatherDisplay:10.37,2013-05-11 23:38:00,
2013-05-11 18:43:00,82.1,56.0,29.89,NNW,335,1.0,3.0,41,0.00,CLR,,0.00,WeatherDisplay:10.37,2013-05-11 23:43:00,
2013-05-11 18:48:00,81.7,55.7,29.89,NW,315,1.0,3.0,41,0.00,CLR,,0.00,WeatherDisplay:10.37,2013-05-11 23:48:00,
2013-05-11 18:53:00,81.0,55.8,29.89,West,261,0.0,2.0,42,0.00,CLR,,0.00,WeatherDisplay:10.37,2013-05-11 23:53:00,
2013-05-11 18:58:00,80.4,56.5,29.89,WSW,247,0.0,2.0,44,0.00,CLR,,0.00,WeatherDisplay:10.37,2013-05-11 23:58:00,
2013-05-11 19:03:00,79.9,56.0,29.90,West,272,1.0,2.0,44,0.00,CLR,,0.00,WeatherDisplay:10.37,2013-05-12 00:03:00,
2013-05-11 19:08:00,79.7,55.8,29.89,West,275,0.0,2.0,44,0.00,CLR,,0.00,WeatherDisplay:10.37,2013-05-12 00:08:00,
2013-05-11 19:13:00,78.2,55.1,29.90,West,266,2.0,5.0,45,0.00,CLR,,0.00,WeatherDisplay:10.37,2013-05-12 00:13:00,
2013-05-11 19:18:00,78.1,55.0,29.90,West,265,0.0,5.0,45,0.00,CLR,,0.00,WeatherDisplay:10.37,2013-05-12 00:18:00,
2013-05-11 19:23:00,77.5,55.1,29.90,WSW,255,0.0,4.0,46,0.00,CLR,,0.00,WeatherDisplay:10.37,2013-05-12 00:23:00,
2013-05-11 19:28:00,77.2,54.8,29.90,WNW,285,0.0,2.0,46,0.00,CLR,,0.00,WeatherDisplay:10.37,2013-05-12 00:28:00,
2013-05-11 19:33:00,76.6,54.9,29.91,WNW,291,0.0,0.0,47,0.00,CLR,,0.00,WeatherDisplay:10.37,2013-05-12 00:33:00,
2013-05-11 19:38:00,76.3,55.1,29.91,West,270,0.0,0.0,48,0.00,CLR,,0.00,WeatherDisplay:10.37,2013-05-12 00:38:00,
2013-05-11 19:43:00,75.9,54.8,29.91,NW,307,0.0,0.0,48,0.00,CLR,,0.00,WeatherDisplay:10.37,2013-05-12 00:43:00,
2013-05-11 19:48:00,75.6,54.5,29.91,NW,311,0.0,0.0,48,0.00,CLR,,0.00,WeatherDisplay:10.37,2013-05-12 00:48:00,
2013-05-11 19:53:00,75.1,54.6,29.91,WNW,286,0.0,0.0,49,0.00,CLR,,0.00,WeatherDisplay:10.37,2013-05-12 00:53:00,
2013-05-11 19:58:00,74.8,54.9,29.92,NW,304,0.0,0.0,50,0.00,CLR,,0.00,WeatherDisplay:10.37,2013-05-12 00:58:00,
2013-05-11 20:03:00,74.3,55.0,29.92,NW,313,0.0,0.0,51,0.00,CLR,,0.00,WeatherDisplay:10.37,2013-05-12 01:03:00,
2013-05-11 20:08:00,73.8,55.6,29.92,NW,315,0.0,0.0,53,0.00,CLR,,0.00,WeatherDisplay:10.37,2013-05-12 01:08:00,
2013-05-11 20:13:00,73.1,55.5,29.92,NW,315,0.0,0.0,54,0.00,CLR,,0.00,WeatherDisplay:10.37,2013-05-12 01:13:00,
2013-05-11 20:18:00,72.5,55.4,29.93,NW,315,0.0,0.0,55,0.00,CLR,,0.00,WeatherDisplay:10.37,2013-05-12 01:18:00,
2013-05-11 20:23:00,71.7,56.6,29.93,NW,315,0.0,0.0,59,0.00,CLR,,0.00,WeatherDisplay:10.37,2013-05-12 01:23:00,
2013-05-11 20:28:00,71.1,56.9,29.93,NW,315,0.0,0.0,61,0.00,CLR,,0.00,WeatherDisplay:10.37,2013-05-12 01:28:00,
2013-05-11 20:33:00,70.7,56.6,29.93,WNW,291,0.0,0.0,61,0.00,CLR,,0.00,WeatherDisplay:10.37,2013-05-12 01:33:00,
2013-05-11 20:38:00,70.3,57.1,29.93,West,270,0.0,0.0,63,0.00,CLR,,0.00,WeatherDisplay:10.37,2013-05-12 01:38:00,
2013-05-11 20:43:00,69.8,56.6,29.93,West,270,0.0,0.0,63,0.00,CLR,,0.00,WeatherDisplay:10.37,2013-05-12 01:43:00,
2013-05-11 20:48:00,69.4,57.2,29.93,West,270,0.0,0.0,65,0.00,CLR,,0.00,WeatherDisplay:10.37,2013-05-12 01:48:00,
2013-05-11 20:53:00,68.9,57.1,29.94,West,270,0.0,0.0,66,0.00,CLR,,0.00,WeatherDisplay:10.37,2013-05-12 01:53:00,
2013-05-11 20:58:00,68.5,56.7,29.94,West,270,0.0,0.0,66,0.00,CLR,,0.00,WeatherDisplay:10.37,2013-05-12 01:58:00,
2013-05-11 21:03:00,68.4,56.6,29.94,West,270,0.0,0.0,66,0.00,CLR,,0.00,WeatherDisplay:10.37,2013-05-12 02:03:00,
2013-05-11 21:08:00,68.1,56.7,29.94,West,270,0.0,0.0,67,0.00,CLR,,0.00,WeatherDisplay:10.37,2013-05-12 02:08:00,
2013-05-11 21:13:00,67.5,56.1,29.95,West,270,0.0,0.0,67,0.00,CLR,,0.00,WeatherDisplay:10.37,2013-05-12 02:13:00,
2013-05-11 21:18:00,67.1,55.8,29.95,West,270,0.0,0.0,67,0.00,CLR,,0.00,WeatherDisplay:10.37,2013-05-12 02:18:00,
2013-05-11 21:23:00,66.9,55.6,29.95,West,270,0.0,0.0,67,0.00,CLR,,0.00,WeatherDisplay:10.37,2013-05-12 02:23:00,
2013-05-11 21:28:00,66.6,55.7,29.95,West,270,0.0,0.0,68,0.00,CLR,,0.00,WeatherDisplay:10.37,2013-05-12 02:28:00,
2013-05-11 21:33:00,66.4,55.9,29.96,West,270,0.0,0.0,69,0.00,CLR,,0.00,WeatherDisplay:10.37,2013-05-12 02:33:00,
2013-05-11 21:38:00,66.0,56.3,29.96,West,270,0.0,0.0,71,0.00,CLR,,0.00,WeatherDisplay:10.37,2013-05-12 02:38:00,
2013-05-11 21:43:00,65.7,56.0,29.96,West,270,0.0,0.0,71,0.00,CLR,,0.00,WeatherDisplay:10.37,2013-05-12 02:43:00,
2013-05-11 21:48:00,65.4,56.2,29.96,West,270,0.0,0.0,72,0.00,CLR,,0.00,WeatherDisplay:10.37,2013-05-12 02:48:00,
2013-05-11 21:53:00,65.0,55.8,29.96,West,270,0.0,0.0,72,0.00,CLR,,0.00,WeatherDisplay:10.37,2013-05-12 02:53:00,
2013-05-11 21:58:00,64.7,55.1,29.97,West,270,0.0,0.0,71,0.00,CLR,,0.00,WeatherDisplay:10.37,2013-05-12 02:58:00,
2013-05-11 22:03:00,64.4,55.2,29.97,West,270,0.0,0.0,72,0.00,CLR,,0.00,WeatherDisplay:10.37,2013-05-12 03:03:00,
2013-05-11 22:08:00,64.1,55.2,29.97,West,270,0.0,0.0,73,0.00,CLR,,0.00,WeatherDisplay:10.37,2013-05-12 03:08:00,
2013-05-11 22:13:00,63.9,55.4,29.98,West,270,0.0,0.0,74,0.00,CLR,,0.00,WeatherDisplay:10.37,2013-05-12 03:13:00,
2013-05-11 22:18:00,63.4,55.7,29.98,West,270,0.0,0.0,76,0.00,CLR,,0.00,WeatherDisplay:10.37,2013-05-12 03:18:00,
2013-05-11 22:23:00,63.1,55.4,29.98,West,270,0.0,0.0,76,0.00,CLR,,0.00,WeatherDisplay:10.37,2013-05-12 03:23:00,
2013-05-11 22:28:00,62.8,55.2,29.98,West,270,0.0,0.0,76,0.00,CLR,,0.00,WeatherDisplay:10.37,2013-05-12 03:28:00,
2013-05-11 22:33:00,62.6,55.3,29.99,West,270,0.0,0.0,77,0.00,CLR,,0.00,WeatherDisplay:10.37,2013-05-12 03:33:00,
2013-05-11 22:38:00,62.4,55.8,29.99,West,270,0.0,0.0,79,0.00,CLR,,0.00,WeatherDisplay:10.37,2013-05-12 03:38:00,
2013-05-11 22:43:00,62.2,56.0,29.99,West,270,0.0,0.0,80,0.00,CLR,,0.00,WeatherDisplay:10.37,2013-05-12 03:43:00,
2013-05-11 22:48:00,62.1,55.8,29.99,West,270,0.0,0.0,80,0.00,CLR,,0.00,WeatherDisplay:10.37,2013-05-12 03:48:00,
2013-05-11 22:53:00,61.9,55.6,29.99,West,270,0.0,0.0,80,0.00,CLR,,0.00,WeatherDisplay:10.37,2013-05-12 03:53:00,
2013-05-11 22:58:00,61.5,55.6,29.99,West,270,0.0,0.0,81,0.00,CLR,,0.00,WeatherDisplay:10.37,2013-05-12 03:58:00,
2013-05-11 23:01:00,61.5,56.0,29.99,West,270,0.0,0.0,82,0.00,CLR,,0.00,WeatherDisplay:10.37,2013-05-12 04:01:00,
2013-05-11 23:02:00,61.5,56.0,29.99,West,270,0.0,0.0,82,0.00,CLR,,0.00,WeatherDisplay:10.37,2013-05-12 04:02:00,
2013-05-11 23:08:00,61.2,56.0,29.99,West,270,0.0,0.0,83,0.00,CLR,,0.00,WeatherDisplay:10.37,2013-05-12 04:08:00,
2013-05-11 23:13:00,61.0,55.8,29.99,West,270,0.0,0.0,83,0.00,CLR,,0.00,WeatherDisplay:10.37,2013-05-12 04:13:00,
2013-05-11 23:18:00,60.8,55.9,29.99,West,270,0.0,0.0,84,0.00,CLR,,0.00,WeatherDisplay:10.37,2013-05-12 04:18:00,
2013-05-11 23:23:00,60.6,56.1,29.99,West,270,0.0,0.0,85,0.00,CLR,,0.00,WeatherDisplay:10.37,2013-05-12 04:23:00,
2013-05-11 23:28:00,60.4,55.6,29.99,West,270,0.0,0.0,84,0.00,CLR,,0.00,WeatherDisplay:10.37,2013-05-12 04:28:00,
2013-05-11 23:33:00,60.3,55.4,29.99,West,270,0.0,0.0,84,0.00,CLR,,0.00,WeatherDisplay:10.37,2013-05-12 04:33:00,
2013-05-11 23:38:00,60.1,55.2,29.99,West,270,0.0,0.0,84,0.00,CLR,,0.00,WeatherDisplay:10.37,2013-05-12 04:38:00,
2013-05-11 23:43:00,60.1,55.2,29.99,West,270,0.0,0.0,84,0.00,CLR,,0.00,WeatherDisplay:10.37,2013-05-12 04:43:00,
2013-05-11 23:48:00,60.0,55.2,29.99,West,270,0.0,0.0,84,0.00,CLR,,0.00,WeatherDisplay:10.37,2013-05-12 04:48:00,
2013-05-11 23:53:00,60.1,55.2,29.99,West,270,0.0,0.0,84,0.00,CLR,,0.00,WeatherDisplay:10.37,2013-05-12 04:53:00,
2013-05-11 23:58:00,60.1,55.2,29.99,West,270,0.0,0.0,84,0.00,CLR,,0.00,WeatherDisplay:10.37,2013-05-12 04:58:00,